Location: Appleton
(44.2618°N, 88.4157°W)
Time: 08:10:28
(UTC+00:00)

S-56A Canister/Altair - Pass Details

Date: 08 March 2021
Orbit: 632 x 2500 km, 38.9° (Epoch: 17 April)

Event Time Altitude Azimuth Distance (km) Brightness Sun altitude
Rises 23:05:08 0° 281° (W) 5,997 13.5 7.3°
Reaches altitude 10° 23:09:02 10° 277° (W) 5,092 13.4 6.6°
Maximum altitude 23:23:19 52° 208° (SSW) 2,871 10.9 4.1°
Drops below altitude 10° 23:36:03 10° 137° (SE) 4,572 11.2 1.9°
Sets 23:39:23 0° 132° (SE) 5,364 11.4 1.3°
